This demonstration page uses our WeatherBlox Daily Observations layout. Learn more.

40.92945, -100.16068

Hourly Observations for April 7, 2018

Temp ( °F °C ) Dew Point ( °F °C ) Humidity (%) Winds ( mph kmh ) Pressure ( in mb ) Visibility ( mi km ) Precip ( " mm )
12:15 am 00:15 Clear 19 -7.5 11 -11.5 73 73 NW 5 7 30.48 1032 10 16.0934 0 0
12:35 am 00:35 Clear 18 -7.6 11 -11.8 72 72 NW 6 9 30.48 1032 10 16.0934 0 0
12:55 am 00:55 Clear 17 -8.5 10 -12 76 76 NNW 6 9 30.45 1031 10 16.0934 0 0
1:15 am 01:15 Clear 15 -9.2 10 -12.5 77 77 NW 6 9 30.5 1033 10 16.0934 0 0
1:35 am 01:35 Clear 14 -9.8 9 -12.8 79 79 NW 6 9 30.5 1033 10 16.0934 0 0
1:55 am 01:55 Clear 14 -9.8 9 -12.7 80 80 NNW 8 13 30.5 1033 10 16.0934 0 0
2:15 am 02:15 Clear 14 -9.8 9 -12.9 78 78 NNW 6 9 30.48 1032 10 16.0934 0 0
2:35 am 02:35 Clear 13 -10.4 8 -13.2 80 80 NNW 6 9 30.48 1032 10 16.0934 0 0
2:55 am 02:55 Clear 13 -10.8 8 -13.4 81 81 NNW 5 7 30.48 1032 10 16.0934 0 0
3:15 am 03:15 Clear 13 -10.7 8 -13.4 81 81 NNW 7 11 30.48 1032 10 16.0934 0 0
3:35 am 03:35 Clear 13 -10.7 8 -13.6 79 79 NNW 7 11 30.48 1032 10 16.0934 0 0
3:55 am 03:55 Clear 11 -11.4 7 -14 81 81 NNW 6 9 30.5 1033 10 16.0934 0 0
4:15 am 04:15 Clear 11 -11.5 7 -14 82 82 N 6 9 30.5 1033 10 16.0934 0 0
4:35 am 04:35 Clear 11 -11.6 7 -14 83 83 N 5 7 30.48 1032 10 16.0934 0 0
4:55 am 04:55 Clear 11 -11.7 6 -14.3 81 81 NNW 3 6 30.48 1032 10 16.0934 0 0
5:15 am 05:15 Clear 10 -12 6 -14.5 82 82 Calm 30.48 1032 10 16.0934 0 0
5:35 am 05:35 Clear 10 -12 6 -14.5 82 82 W 5 7 30.48 1032 10 16.0934 0 0
5:55 am 05:55 Clear 10 -12.2 6 -14.6 83 83 WNW 3 6 30.48 1032 10 16.0934 0 0
6:15 am 06:15 Mostly Cloudy 11 -11.6 7 -14.1 82 82 W 5 7 30.48 1032 10 16.0934 0 0
6:35 am 06:35 Partly Cloudy 11 -11.5 7 -14.1 81 81 W 3 6 30.45 1031 10 16.0934 0 0
6:55 am 06:55 Clear 10 -12.1 6 -14.5 83 83 W 5 7 30.48 1032 10 16.0934 0 0
7:15 am 07:15 Sunny 11 -11.6 7 -14 83 83 WNW 3 6 30.48 1032 10 16.0934 0 0
7:35 am 07:35 Sunny 11 -11.8 6 -14.2 83 83 WNW 5 7 30.48 1032 10 16.0934 0 0
7:55 am 07:55 Sunny 12 -11.1 8 -13.5 83 83 WNW 5 7 30.48 1032 10 16.0934 0 0
8:15 am 08:15 Sunny 13 -10.7 8 -13.5 80 80 W 5 7 30.48 1032 10 16.0934 0 0
8:35 am 08:35 Sunny 14 -10.1 9 -13 80 80 W 5 7 30.48 1032 10 16.0934 0 0
8:55 am 08:55 Sunny 16 -9.1 10 -12.3 78 78 W 3 6 30.48 1032 10 16.0934 0 0
9:15 am 09:15 Sunny 17 -8.5 10 -12.4 74 74 Calm 30.45 1031 10 16.0934 0 0
9:35 am 09:35 Sunny 18 -7.9 10 -12 73 73 Calm 30.45 1031 10 16.0934 0 0
9:55 am 09:55 Sunny 20 -6.8 11 -11.7 68 68 Calm 30.45 1031 10 16.0934 0 0
10:15 am 10:15 Sunny 21 -6.2 11 -11.5 66 66 Calm 30.45 1031 10 16.0934 0 0
10:35 am 10:35 Sunny 22 -5.4 12 -11.1 65 65 S 3 6 30.39 1029 10 16.0934 0 0
10:55 am 10:55 Sunny 24 -4.4 12 -11.1 60 60 SSW 5 7 30.42 1030 10 16.0934 0 0
11:15 am 11:15 Sunny 25 -4.1 12 -11.3 58 58 S 8 13 30.39 1029 10 16.0934 0 0
11:35 am 11:35 Sunny 25 -3.8 11 -11.7 55 55 S 5 7 30.39 1029 10 16.0934 0 0
11:55 am 11:55 Sunny 26 -3.1 13 -10.6 57 57 SSE 5 7 30.33 1027 10 16.0934 0 0
12:15 pm 12:15 Sunny 28 -2.4 15 -9.6 58 58 S 7 11 30.33 1027 10 16.0934 0 0
12:35 pm 12:35 Sunny 29 -1.6 15 -9.2 57 57 SSE 8 13 30.33 1027 10 16.0934 0 0
12:55 pm 12:55 Sunny 30 -1.3 15 -9.3 55 55 SSW 6 9 30.3 1026 10 16.0934 0 0
1:15 pm 13:15 Sunny 31 -0.8 16 -8.8 55 55 SSE 9 15 30.27 1025 10 16.0934 0 0
1:35 pm 13:35 Sunny 32 -0.2 15 -9.2 51 51 S 9 15 30.24 1024 10 16.0934 0 0
1:55 pm 13:55 Sunny 33 0.6 17 -8.6 51 51 S 10 17 30.24 1024 10 16.0934 0 0
2:15 pm 14:15 Sunny 33 0.4 13 -10.8 43 43 S 10 17 30.21 1023 10 16.0934 0 0
2:35 pm 14:35 Sunny 33 0.7 15 -9.7 46 46 S 13 20 30.21 1023 10 16.0934 0 0
2:55 pm 14:55 Sunny 34 1.3 12 -11.1 40 40 SSE 9 15 30.21 1023 10 16.0934 0 0
3:15 pm 15:15 Sunny 35 1.9 13 -10.3 40 40 SSE 8 13 30.18 1022 10 16.0934 0 0
3:35 pm 15:35 Sunny 37 2.5 13 -10.6 38 38 SSE 10 17 30.15 1021 10 16.0934 0 0
3:55 pm 15:55 Sunny 36 2.4 11 -11.9 34 34 SE 7 11 30.15 1021 10 16.0934 0 0
4:15 pm 16:15 Sunny 37 2.7 11 -11.9 34 34 SSE 10 17 30.12 1020 10 16.0934 0 0
4:35 pm 16:35 Sunny 37 3 11 -11.9 33 33 S 12 19 30.12 1020 10 16.0934 0 0
4:55 pm 16:55 Sunny 38 3.2 9 -12.7 30 30 S 14 22 30.12 1020 10 16.0934 0 0
5:15 pm 17:15 Sunny 38 3.2 10 -12.4 31 31 S 14 22 30.12 1020 10 16.0934 0 0
5:35 pm 17:35 Sunny 38 3.5 10 -12 31 31 S 14 22 30.12 1020 10 16.0934 0 0
5:55 pm 17:55 Sunny 38 3.5 10 -12 31 31 S 15 24 30.12 1020 10 16.0934 0 0
6:15 pm 18:15 Sunny 38 3.3 12 -11.2 34 34 S 12 19 30.12 1020 10 16.0934 0 0
6:35 pm 18:35 Sunny 38 3.1 14 -10 38 38 S 9 15 30.09 1019 10 16.0934 0 0
6:55 pm 18:55 Sunny 37 2.6 14 -9.8 40 40 SSE 14 22 30.09 1019 10 16.0934 0 0
7:15 pm 19:15 Sunny 37 2.5 15 -9.5 41 41 S 14 22 30.09 1019 10 16.0934 0 0
7:35 pm 19:35 Sunny 36 2 14 -9.9 41 41 SSE 12 19 30.09 1019 10 16.0934 0 0
7:55 pm 19:55 Sunny 35 1.6 14 -10 42 42 SSE 12 19 30.09 1019 10 16.0934 0 0
8:15 pm 20:15 Clear 34 1 14 -9.8 45 45 SSE 10 17 30.06 1018 10 16.0934 0 0
8:35 pm 20:35 Clear 34 0.9 15 -9.3 47 47 SSE 12 19 30.06 1018 10 16.0934 0 0
8:55 pm 20:55 Clear 33 0.7 16 -9 49 49 SSE 10 17 30.06 1018 10 16.0934 0 0
9:15 pm 21:15 Clear 33 0.5 16 -9 49 49 SSE 13 20 30.06 1018 10 16.0934 0 0
9:35 pm 21:35 Clear 33 0.3 16 -9 50 50 SSE 15 24 30.09 1019 10 16.0934 0 0
9:55 pm 21:55 Clear 32 0.1 15 -9.2 50 50 SSE 14 22 30.06 1018 10 16.0934 0 0
10:15 pm 22:15 Clear 32 0.1 15 -9.5 49 49 SSE 13 20 30.06 1018 10 16.0934 0 0
10:35 pm 22:35 Partly Cloudy 32 0.1 15 -9.3 50 50 SSE 14 22 30.06 1018 10 16.0934 0 0
10:55 pm 22:55 Cloudy 33 0.3 15 -9.2 49 49 SSE 14 22 30.03 1017 10 16.0934 0 0
11:15 pm 23:15 Cloudy 33 0.5 16 -9.1 49 49 SSE 14 22 30 1016 10 16.0934 0 0
11:35 pm 23:35 Cloudy 33 0.7 15 -9.4 47 47 SSE 16 26 30 1016 10 16.0934 0 0
11:55 pm 23:55 Cloudy 33 0.8 15 -9.6 46 46 SSE 18 30 30 1016 10 16.0934 0 0

Powered by AerisWeather